Wind_Speed
14 14 13 12 8 4 2 7 9 8 11 10 9 11 13 12 12 14 14 14 14 15 15 14 13 12 12 11 10 9 9 9 9 10 10 10 11 12 12 13 13 13 14 14 14 14 13 13 12
13 13 12 11 7 6 3 4 6 8 9 7 7 9 11 11 11 13 12 12 12 12 12 12 11 10 9 9 8 8 7 7 8 8 8 9 9 10 11 11 12 12 12 12 13 13 13 12 12
14 13 12 10 8 7 3 2 3 6 7 7 6 7 9 9 9 11 10 10 10 10 10 9 8 7 7 6 6 5 5 5 5 6 7 7 8 9 9 10 11 11 11 11 12 12 12 12 12
15 14 12 9 9 6 3 2 4 4 5 5 6 6 6 6 6 7 8 7 7 7 7 6 6 5 4 4 3 3 3 4 4 5 6 7 7 8 9 9 10 10 11 11 11 11 12 12 12
15 14 13 10 10 6 2 2 4 3 4 5 6 7 6 5 5 5 5 5 4 4 4 3 3 2 1 1 2 3 4 5 6 7 7 7 8 9 9 9 10 10 11 11 12 12 12 12 12
13 13 12 10 11 8 4 4 6 5 4 5 7 8 8 7 7 6 5 4 3 1 1 1 1 1 1 2 3 4 6 7 8 9 10 10 10 10 10 10 10 10 11 11 12 13 13 13 13
11 11 12 10 11 8 5 7 9 8 8 7 7 9 10 9 9 10 8 7 6 5 5 5 4 4 4 4 4 6 7 8 9 10 11 11 11 10 10 10 10 10 11 12 12 13 14 14 15
10 10 12 14 13 8 6 9 12 10 9 8 9 10 11 10 10 12 13 11 10 9 8 8 8 7 6 5 6 7 8 10 10 11 11 11 11 11 11 11 10 10 11 12 13 14 14 15 16
13 12 14 16 16 12 7 10 14 12 9 9 11 13 13 12 12 13 14 14 13 13 12 11 10 9 8 8 8 8 9 10 10 10 10 10 10 10 11 11 11 11 11 12 13 14 15 16 16
16 15 17 18 18 17 13 13 14 13 10 10 11 13 15 14 13 13 14 15 14 14 14 12 12 12 12 11 11 11 11 11 11 10 10 10 10 10 10 11 12 12 13 14 14 14 16 16 17
20 19 21 22 22 21 18 16 15 14 13 13 13 14 16 16 15 14 14 15 15 16 15 15 15 15 15 15 14 14 14 13 12 11 11 11 11 12 12 13 14 15 16 17 16 16 17 17 19
26 24 25 26 26 25 22 20 20 18 16 16 16 16 16 16 17 16 16 16 16 17 17 17 18 18 17 17 17 16 16 15 14 13 12 12 12 12 13 14 16 16 18 18 19 19 20 20 20
31 29 29 30 31 29 26 25 25 24 21 19 19 19 19 18 18 18 18 18 18 18 18 18 18 19 18 18 17 17 17 16 16 15 15 14 13 13 13 15 17 18 20 20 21 22 22 22 22
34 33 33 33 34 32 30 29 28 27 26 25 24 23 22 21 21 21 22 22 21 20 20 20 20 20 20 19 19 18 18 17 17 17 17 16 16 15 15 16 17 19 21 22 23 24 24 23 23
37 37 36 34 34 33 33 32 31 30 30 29 28 27 26 25 24 24 26 27 26 25 24 24 24 23 23 23 22 21 20 20 20 20 20 19 19 20 19 20 20 22 23 24 25 25 25 24 24
37 38 37 34 34 32 35 34 31 33 34 32 31 31 30 29 28 29 30 30 30 29 29 28 27 27 27 27 26 25 24 23 23 23 23 23 23 23 23 23 24 24 25 27 28 28 27 25 25
32 33 33 32 32 31 34 34 31 34 37 36 35 35 35 34 33 32 33 34 34 33 33 31 31 31 30 30 29 29 27 27 26 26 26 26 26 25 25 26 27 27 29 30 31 30 28 27 26
25 28 30 32 30 29 32 34 31 32 35 37 38 38 38 38 38 37 37 37 36 35 35 34 33 33 32 32 31 31 30 30 29 29 29 29 28 28 28 29 29 30 31 32 33 32 31 30 28
25 27 29 30 28 29 31 34 32 30 33 35 38 39 40 41 41 40 37 38 39 37 34 36 35 35 35 34 34 33 33 32 32 31 31 30 30 30 31 31 31 32 33 35 35 35 34 33 32
26 27 27 26 24 26 28 28 27 29 30 33 37 40 41 43 42 39 38 37 37 35 35 36 37 37 37 36 36 36 35 35 34 33 33 32 31 31 32 32 33 34 35 36 37 38 37 36 35
28 27 27 27 26 27 29 27 26 27 30 34 39 41 43 44 44 43 42 40 38 38 36 37 38 39 39 39 38 37 36 36 36 35 34 33 32 32 32 33 34 35 37 38 39 39 38 37 36
29 28 29 30 29 29 30 32 30 31 33 37 40 43 44 44 45 44 43 41 39 38 37 38 40 40 40 39 37 35 36 35 35 35 34 33 32 32 32 33 34 36 37 39 40 40 40 39 38
31 31 32 33 33 32 33 37 35 36 39 41 42 44 45 45 44 43 42 41 40 37 36 36 38 39 38 36 34 34 34 33 34 33 31 31 31 31 32 34 36 38 39 39 40 41 41 40 38
30 31 32 33 34 35 33 38 40 40 42 44 45 45 45 45 44 44 43 43 41 40 38 36 34 33 32 31 31 32 32 32 32 30 30 31 32 34 35 37 38 39 39 40 40 40 40 39 37
24 25 27 29 31 33 32 36 40 40 43 45 47 47 47 47 47 46 45 44 42 41 40 38 36 33 31 30 30 31 31 31 31 31 31 33 34 36 37 38 39 39 40 39 38 38 37 37 36
18 21 23 25 26 26 28 33 36 39 41 43 44 46 48 49 50 49 47 47 47 47 45 43 41 39 35 34 34 34 33 33 33 34 35 36 37 38 39 40 40 40 39 38 36 35 35 34 33
19 22 25 28 30 30 29 29 33 36 40 42 44 46 47 50 51 52 51 48 50 49 47 46 45 43 41 39 38 37 37 37 37 37 37 39 39 40 41 41 40 38 36 34 33 33 33 33 32
20 21 24 28 33 35 35 34 36 38 41 44 45 47 49 50 52 53 54 52 51 50 49 49 49 49 46 43 40 39 39 39 39 39 40 40 41 41 40 38 36 34 33 32 31 31 30 30 30
20 21 24 26 29 33 36 36 35 39 42 45 47 50 52 52 52 53 54 53 49 49 48 48 48 48 46 43 40 39 38 38 39 40 39 38 38 37 35 34 33 32 31 30 30 29 28 27 27
19 21 23 26 28 30 35 37 35 37 40 43 45 47 49 50 50 48 48 48 46 45 42 42 43 43 43 41 39 37 36 36 37 36 35 35 34 33 33 32 32 31 31 31 30 29 28 27 27
Wind_Direction
147 146 147 143 141 146 109 102 96 92 81 74 77 87 98 108 109 106 105 105 104 101 98 96 94 92 89 83 75 65 54 45 39 37 38 38 36 32 29 26 24 24 25 26 27 30 32 33 35
156 153 158 155 167 178 156 118 118 112 105 108 106 102 107 114 112 112 113 112 109 105 103 100 97 93 90 84 77 68 56 44 34 29 29 29 28 25 22 18 16 15 16 17 18 19 21 23 25
167 167 170 164 186 195 166 156 165 133 129 138 135 127 125 127 125 123 126 122 117 114 113 110 107 103 96 89 80 71 56 41 30 20 15 14 14 12 9 7 5 4 4 5 7 8 9 12 14
181 182 185 185 199 178 150 216 221 163 153 169 168 166 150 150 152 141 141 135 128 126 125 123 121 116 108 98 82 60 39 21 9 1 357 355 354 354 354 353 352 351 351 352 354 355 357 0 3
189 194 197 200 210 189 157 256 253 197 185 200 201 200 187 186 201 181 170 162 149 140 139 140 138 132 110 74 35 14 2 353 348 343 340 338 338 340 343 343 342 341 340 340 341 343 344 348 351
189 196 200 208 229 224 216 261 272 255 242 227 226 223 214 208 226 229 218 218 219 216 225 245 267 305 334 353 357 353 349 344 341 338 336 335 336 338 341 340 339 338 336 334 335 334 335 338 340
192 193 193 210 227 224 228 255 263 258 256 257 250 242 232 220 229 248 247 249 257 264 272 277 282 293 304 320 333 338 338 336 334 333 334 338 342 346 348 347 346 344 341 337 333 331 330 332 333
191 194 196 214 219 222 246 263 269 263 259 259 255 250 241 230 229 245 255 256 263 268 271 274 276 281 286 298 314 326 331 333 330 329 332 339 345 350 351 353 354 352 347 342 335 330 326 325 324
197 202 208 219 228 234 242 261 271 267 260 254 252 254 250 241 234 240 253 256 261 265 267 270 270 273 277 286 298 311 319 324 325 326 329 334 340 346 350 353 353 350 346 342 335 330 324 320 317
209 211 219 229 238 246 244 252 264 269 266 260 257 257 255 250 241 240 252 257 257 260 263 266 267 271 274 281 287 296 307 311 312 313 317 322 328 336 339 340 343 342 340 335 331 326 323 318 314
222 219 226 234 240 246 251 255 258 264 268 266 262 262 260 258 253 246 248 254 258 259 260 263 267 270 272 277 280 287 296 299 299 300 304 309 314 321 326 332 337 337 336 333 326 323 319 314 310
231 226 231 237 243 248 252 257 260 261 262 264 265 264 263 264 260 255 248 250 256 260 263 263 266 270 271 273 276 281 287 290 290 292 295 300 308 314 322 326 329 330 331 332 332 325 317 311 306
233 232 232 237 244 250 255 259 263 265 266 267 266 266 263 258 260 258 253 252 254 258 263 264 266 270 272 274 276 279 284 287 290 291 291 294 299 306 314 318 323 323 327 329 329 327 322 314 306
239 237 236 238 244 249 254 259 262 265 266 266 266 266 264 262 261 259 256 256 254 254 258 261 264 267 270 272 275 279 283 286 289 289 290 291 293 296 301 309 317 322 324 327 329 327 324 318 313
243 243 242 244 249 252 254 256 261 265 266 266 266 266 265 264 261 263 260 256 257 256 257 259 262 265 268 271 273 276 279 282 285 287 289 289 292 294 296 301 307 312 317 320 324 326 325 321 317
244 246 247 248 252 255 256 257 261 264 265 265 265 265 266 264 263 265 262 259 260 260 258 259 262 265 267 270 273 276 278 281 284 287 289 291 292 295 297 299 304 307 310 313 317 321 322 320 318
243 247 248 248 248 249 252 256 255 258 261 263 264 265 267 266 266 266 263 259 260 263 260 259 261 265 268 272 274 278 281 283 286 289 291 293 293 293 295 297 301 303 306 308 312 315 315 316 315
242 244 244 242 239 242 246 250 248 251 257 260 262 264 268 268 269 267 266 265 261 262 260 258 260 263 268 272 276 279 282 284 287 289 291 292 292 291 293 295 297 299 301 303 306 308 308 309 310
238 239 240 240 236 241 245 248 248 247 253 259 262 264 266 267 271 269 269 272 268 262 260 262 264 262 265 270 273 277 280 283 285 287 288 289 289 289 289 291 293 294 297 299 301 302 303 303 303
242 243 245 244 237 240 244 249 251 251 254 259 262 264 267 269 271 272 276 278 271 267 264 262 262 260 264 266 269 273 277 279 281 283 284 285 285 285 285 287 289 291 293 296 297 298 299 299 298
247 248 250 247 237 236 240 241 244 245 250 255 260 265 269 272 273 273 273 273 272 272 270 267 264 263 260 261 265 269 273 275 277 278 279 281 281 281 282 284 286 288 291 293 295 295 296 296 295
251 252 253 253 247 237 239 241 237 240 244 250 257 263 268 271 273 274 273 273 272 272 270 268 267 264 262 261 261 266 270 273 275 275 276 277 279 280 282 284 286 288 290 291 292 293 293 292 292
255 255 256 258 256 250 241 246 243 242 247 251 256 261 266 269 272 273 273 273 274 273 272 267 266 262 262 263 264 270 271 273 274 273 274 276 279 282 284 287 288 289 290 290 290 290 289 289 288
261 261 261 262 263 260 252 250 251 248 252 256 260 263 266 267 269 270 272 273 273 272 271 270 268 264 265 269 271 272 272 273 273 274 276 278 281 285 287 288 289 289 289 289 289 288 287 286 286
265 267 268 266 265 265 262 256 257 255 253 255 258 260 263 264 265 267 268 270 270 270 271 272 271 273 275 276 274 274 274 273 274 275 277 279 282 284 286 288 289 289 289 290 288 287 286 286 285
265 270 273 275 272 269 264 262 262 260 259 258 259 260 261 262 264 265 267 266 267 269 270 273 274 275 276 277 276 276 275 274 276 278 279 280 282 285 287 288 288 289 289 289 287 286 286 286 285
273 273 277 278 280 279 273 268 266 265 264 262 260 259 260 261 262 264 266 267 265 265 266 269 272 273 274 275 274 273 273 273 275 277 279 281 284 285 287 287 288 288 287 287 287 287 286 285 285
282 281 279 279 281 282 279 274 270 269 267 264 261 260 259 261 262 263 265 267 267 267 266 268 269 272 272 273 273 273 272 272 273 276 279 281 284 285 286 286 287 287 286 286 287 287 288 287 285
291 291 289 287 287 287 288 285 282 277 272 268 266 264 263 263 265 265 266 269 269 271 270 268 270 268 269 271 272 274 273 272 273 275 278 280 282 284 285 285 285 286 285 285 286 286 288 288 286
300 302 300 298 298 297 296 298 294 286 279 275 271 269 266 266 265 267 265 267 269 270 269 268 268 266 267 269 270 271 271 272 273 274 276 279 281 282 283 284 284 284 284 284 283 284 284 285 286
Height
5926 5927 5928 5929 5931 5930 5929 5929 5928 5930 5933 5932 5932 5933 5933 5933 5934 5935 5933 5932 5932 5931 5931 5932 5932 5932 5932 5932 5932 5932 5932 5931 5931 5930 5929 5928 5927 5925 5924 5923 5921 5920 5918 5917 5915 5914 5913 5911 5910
5926 5927 5929 5929 5929 5930 5930 5930 5930 5932 5934 5933 5934 5935 5935 5934 5934 5934 5934 5934 5933 5933 5933 5933 5934 5934 5933 5933 5933 5933 5933 5932 5932 5931 5930 5929 5928 5927 5925 5924 5922 5921 5919 5918 5917 5915 5914 5912 5911
5926 5927 5928 5928 5929 5930 5931 5930 5931 5933 5934 5935 5936 5937 5937 5936 5936 5936 5936 5936 5935 5935 5935 5935 5935 5935 5935 5934 5934 5934 5934 5933 5933 5932 5931 5930 5928 5927 5926 5925 5924 5922 5920 5919 5918 5916 5915 5913 5912
5926 5927 5928 5929 5929 5930 5930 5930 5931 5933 5934 5936 5937 5937 5938 5938 5937 5937 5937 5937 5936 5936 5936 5936 5936 5936 5935 5935 5935 5935 5934 5934 5933 5932 5931 5930 5929 5928 5927 5926 5924 5923 5921 5920 5918 5917 5915 5914 5912
5925 5927 5928 5928 5928 5928 5928 5928 5930 5933 5934 5935 5936 5937 5939 5939 5937 5938 5938 5938 5937 5937 5937 5937 5936 5936 5936 5936 5935 5935 5935 5934 5933 5932 5931 5930 5929 5928 5927 5925 5924 5923 5921 5920 5918 5917 5915 5914 5912
5925 5926 5927 5928 5928 5926 5927 5928 5929 5931 5933 5934 5936 5936 5938 5939 5938 5938 5939 5938 5938 5938 5938 5937 5937 5936 5936 5936 5935 5935 5934 5934 5933 5932 5931 5930 5929 5927 5926 5925 5924 5922 5921 5919 5918 5916 5915 5913 5912
5925 5926 5926 5927 5927 5926 5926 5927 5928 5930 5931 5933 5934 5935 5936 5939 5939 5937 5938 5938 5938 5938 5938 5937 5937 5936 5936 5935 5935 5934 5934 5933 5932 5931 5930 5929 5928 5927 5925 5924 5923 5922 5920 5919 5917 5916 5914 5913 5911
5924 5926 5925 5925 5925 5924 5925 5925 5925 5928 5930 5931 5932 5932 5933 5937 5938 5936 5936 5937 5937 5937 5937 5937 5937 5936 5935 5935 5934 5934 5933 5932 5931 5930 5929 5928 5927 5926 5924 5923 5922 5921 5919 5918 5916 5915 5913 5911 5910
5923 5925 5923 5923 5923 5922 5923 5924 5924 5926 5928 5929 5929 5930 5931 5933 5935 5935 5934 5935 5936 5936 5936 5936 5936 5935 5935 5934 5933 5932 5932 5931 5930 5928 5927 5926 5925 5924 5923 5922 5920 5919 5918 5916 5915 5913 5911 5910 5908
5921 5922 5921 5921 5921 5921 5921 5922 5923 5924 5925 5927 5927 5928 5928 5930 5932 5933 5933 5933 5934 5934 5934 5934 5934 5933 5933 5932 5931 5931 5930 5929 5928 5927 5925 5924 5923 5922 5921 5920 5918 5917 5916 5914 5913 5911 5909 5907 5905
5918 5920 5918 5918 5918 5918 5918 5919 5921 5922 5923 5925 5926 5926 5926 5928 5929 5931 5931 5930 5931 5931 5931 5932 5931 5931 5931 5930 5929 5928 5927 5926 5925 5924 5923 5922 5920 5919 5918 5917 5915 5914 5913 5911 5909 5907 5905 5903 5901
5914 5916 5915 5915 5915 5915 5916 5917 5918 5920 5922 5923 5924 5925 5925 5926 5927 5928 5928 5928 5928 5928 5928 5929 5928 5928 5928 5927 5926 5926 5925 5924 5923 5922 5921 5920 5918 5916 5915 5914 5913 5911 5910 5908 5906 5904 5902 5900 5897
5907 5911 5911 5911 5911 5912 5913 5914 5914 5916 5918 5919 5921 5922 5922 5923 5923 5925 5926 5926 5926 5926 5925 5925 5925 5924 5924 5924 5923 5922 5921 5920 5919 5918 5918 5917 5916 5914 5913 5911 5910 5908 5906 5904 5901 5899 5897 5895 5893
5902 5904 5906 5906 5906 5908 5910 5911 5911 5912 5914 5915 5916 5918 5919 5919 5919 5920 5921 5922 5922 5922 5922 5922 5922 5921 5921 5920 5920 5919 5918 5917 5915 5915 5914 5913 5912 5912 5910 5908 5906 5904 5902 5899 5897 5895 5893 5890 5888
5895 5898 5901 5903 5903 5904 5905 5907 5908 5908 5909 5910 5911 5912 5913 5914 5915 5915 5915 5916 5917 5917 5917 5917 5917 5917 5917 5916 5916 5915 5915 5914 5912 5911 5909 5909 5907 5906 5905 5904 5902 5900 5898 5896 5894 5891 5888 5886 5883
5888 5891 5895 5899 5899 5900 5900 5901 5903 5901 5902 5904 5905 5906 5907 5908 5908 5909 5909 5911 5911 5911 5911 5910 5911 5911 5911 5910 5910 5910 5909 5908 5907 5906 5904 5903 5902 5900 5899 5898 5896 5895 5893 5891 5888 5886 5884 5881 5879
5882 5884 5887 5890 5891 5891 5891 5893 5897 5894 5895 5896 5897 5898 5899 5900 5901 5902 5903 5903 5904 5904 5904 5903 5903 5903 5903 5903 5903 5902 5902 5901 5900 5899 5898 5897 5895 5894 5893 5892 5890 5889 5887 5885 5883 5881 5879 5877 5874
5876 5877 5878 5880 5881 5881 5882 5884 5887 5887 5887 5888 5889 5890 5892 5892 5893 5895 5896 5896 5896 5896 5895 5896 5896 5895 5895 5895 5895 5894 5894 5893 5893 5892 5891 5890 5889 5887 5886 5885 5884 5882 5880 5879 5877 5875 5873 5871 5869
5868 5869 5871 5873 5875 5875 5875 5876 5878 5879 5880 5881 5882 5883 5884 5884 5884 5885 5885 5886 5887 5887 5888 5888 5888 5887 5887 5887 5887 5886 5886 5886 5885 5885 5884 5883 5882 5881 5880 5878 5877 5875 5874 5872 5870 5868 5866 5864 5862
5863 5865 5866 5868 5869 5869 5870 5871 5872 5873 5874 5874 5874 5875 5875 5875 5876 5877 5877 5879 5878 5878 5878 5879 5878 5877 5878 5878 5878 5878 5878 5878 5878 5877 5876 5876 5875 5874 5873 5871 5870 5868 5866 5864 5862 5860 5858 5856 5855
5859 5861 5861 5862 5863 5864 5865 5867 5868 5867 5868 5868 5867 5867 5867 5867 5868 5869 5870 5870 5870 5869 5869 5868 5868 5867 5868 5867 5867 5869 5869 5869 5869 5868 5868 5867 5867 5866 5865 5864 5862 5860 5858 5857 5854 5852 5850 5849 5846
5854 5855 5855 5855 5857 5859 5861 5861 5864 5863 5862 5861 5860 5859 5858 5858 5858 5859 5859 5859 5860 5860 5860 5860 5858 5858 5856 5857 5858 5858 5859 5860 5859 5859 5859 5859 5858 5858 5857 5855 5854 5852 5850 5848 5846 5844 5841 5840 5838
5847 5848 5848 5848 5850 5853 5855 5854 5857 5857 5856 5855 5853 5852 5851 5850 5849 5849 5849 5849 5849 5849 5849 5848 5847 5847 5847 5847 5848 5849 5850 5850 5850 5850 5850 5850 5850 5849 5848 5847 5845 5843 5841 5839 5837 5834 5832 5830 5829
5840 5841 5842 5842 5843 5845 5848 5847 5848 5850 5849 5847 5846 5844 5842 5841 5840 5840 5839 5839 5838 5838 5838 5836 5836 5837 5838 5839 5840 5841 5842 5842 5842 5842 5842 5842 5842 5841 5840 5838 5836 5834 5832 5830 5827 5825 5823 5821 5819
5835 5835 5835 5835 5836 5836 5839 5838 5839 5839 5839 5837 5836 5834 5833 5831 5831 5830 5829 5828 5827 5826 5827 5827 5828 5829 5830 5831 5832 5833 5833 5834 5834 5834 5835 5834 5834 5833 5831 5829 5827 5825 5823 5820 5818 5816 5814 5812 5810
5830 5830 5830 5829 5828 5828 5829 5829 5829 5827 5827 5827 5825 5824 5822 5821 5820 5818 5817 5817 5817 5817 5818 5819 5819 5820 5822 5823 5824 5825 5826 5826 5826 5826 5826 5826 5825 5823 5822 5820 5818 5816 5813 5811 5809 5807 5805 5803 5802
5826 5825 5825 5823 5820 5819 5821 5822 5819 5817 5816 5816 5814 5813 5811 5809 5808 5806 5804 5803 5805 5806 5807 5809 5810 5811 5813 5814 5815 5816 5816 5817 5817 5817 5817 5816 5815 5814 5812 5810 5808 5806 5804 5802 5800 5799 5797 5795 5794
5821 5820 5819 5816 5813 5811 5810 5810 5810 5808 5806 5804 5802 5800 5799 5797 5796 5794 5793 5792 5794 5795 5797 5798 5799 5801 5803 5804 5804 5805 5806 5807 5807 5807 5807 5806 5805 5803 5802 5800 5799 5797 5796 5794 5792 5791 5789 5787 5786
5816 5814 5812 5809 5807 5803 5799 5802 5800 5797 5793 5791 5789 5788 5787 5785 5783 5782 5782 5782 5783 5784 5785 5787 5788 5790 5791 5792 5793 5794 5795 5796 5796 5796 5796 5796 5795 5794 5792 5791 5790 5789 5788 5786 5785 5784 5782 5780 5779
5811 5809 5806 5803 5800 5796 5791 5792 5787 5784 5780 5778 5776 5773 5772 5772 5771 5769 5770 5771 5772 5773 5774 5776 5777 5779 5780 5782 5783 5784 5785 5786 5786 5786 5786 5786 5785 5785 5784 5783 5782 5781 5780 5779 5778 5776 5775 5774 5772